When you browse on this site, cookies collect data to enhance your experience and personalize the content and advertising you see.
Visit our Privacy Policy to learn more. By continuing to use the site, you agree to this use of cookies and data.
  • In Austria
  • List of Countries
  • For 7 days
  • Water Temperature
  • Satellite Maps
  • Weather Map
  • News
  • Weather Widgets
  • user-avatar
    Login

    Hourly Weather Salta

    Today, 26 March, Tuesday

    Time Temperature Precipitation Wind Pressure Humidity
    00:00 +18°C° 0.3 mm 1 mps 653 mmHg 98%
    01:00 +18°C° 0.3 mm 1 mps 653 mmHg 98%
    02:00 +18°C° 0.3 mm 1 mps 653 mmHg 98%
    03:00 +18°C° 0.3 mm 1 mps 653 mmHg 98%
    04:00 +16°C° 0.3 mm 1 mps 653 mmHg 98%
    05:00 +16°C° 0.3 mm 1 mps 653 mmHg 98%
    06:00 +16°C° 0.5 mm 1 mps 654 mmHg 97%
    07:00 +16°C° 0.5 mm 1 mps 654 mmHg 97%
    08:00 +16°C° 0.5 mm 1 mps 654 mmHg 97%
    09:00 +16°C° 0.4 mm 1 mps 654 mmHg 97%
    10:00 +16°C° 0.4 mm 2 mps 654 mmHg 96%
    11:00 +16°C° 0.4 mm 2 mps 654 mmHg 96%
    12:00 +15°C° 0.3 mm 2 mps 654 mmHg 96%
    13:00 +15°C° 0.3 mm 1 mps 653 mmHg 96%
    14:00 +15°C° 0.3 mm 1 mps 652 mmHg 97%
    15:00 +15°C° 0.1 mm 1 mps 652 mmHg 95%
    16:00 +15°C° 0.1 mm 1 mps 652 mmHg 93%
    17:00 +16°C° 0.1 mm 1 mps 652 mmHg 91%
    18:00 +15°C° 0.1 mm 1 mps 652 mmHg 93%
    19:00 +15°C° 0.1 mm 1 mps 653 mmHg 94%
    20:00 +14°C° 0.1 mm 1 mps 653 mmHg 96%
    21:00 +13°C° 0.1 mm 0 mps 654 mmHg 96%
    22:00 +13°C° 0.1 mm 0 mps 654 mmHg 96%
    23:00 +13°C° 0.1 mm 0 mps 655 mmHg 96%

    Tomorrow, 27 March, Wednesday

    Time Temperature Precipitation Wind Pressure Humidity
    00:00 +13°C° 0.1 mm 0 mps 654 mmHg 96%
    01:00 +13°C° 0.1 mm 0 mps 654 mmHg 96%
    02:00 +13°C° 0.1 mm 0 mps 654 mmHg 96%
    03:00 +12°C° 0.1 mm 0 mps 654 mmHg 96%
    04:00 +12°C° 0.1 mm 0 mps 654 mmHg 96%
    05:00 +12°C° 0.1 mm 0 mps 654 mmHg 96%
    06:00 +14°C° 0.1 mm 1 mps 654 mmHg 95%
    07:00 +14°C° 0.1 mm 1 mps 655 mmHg 94%
    08:00 +14°C° 0.1 mm 1 mps 655 mmHg 93%
    09:00 +15°C° 0.1 mm 1 mps 655 mmHg 92%
    10:00 +15°C° 0.1 mm 1 mps 655 mmHg 91%
    11:00 +16°C° 0.1 mm 1 mps 655 mmHg 90%
    12:00 +16°C° 0.1 mm 2 mps 654 mmHg 89%
    13:00 +16°C° 0.1 mm 2 mps 654 mmHg 88%
    14:00 +17°C° 0.1 mm 2 mps 653 mmHg 88%
    15:00 +18°C° 0.1 mm 1 mps 653 mmHg 88%
    16:00 +16°C° 0.1 mm 1 mps 652 mmHg 88%
    17:00 +16°C° 0.1 mm 1 mps 652 mmHg 88%
    18:00 +16°C° 0 mm 1 mps 652 mmHg 89%
    19:00 +14°C° 0 mm 0 mps 653 mmHg 91%
    20:00 +14°C° 0 mm 0 mps 653 mmHg 93%
    21:00 +13°C° 0 mm 0 mps 654 mmHg 93%
    22:00 +13°C° 0 mm 0 mps 654 mmHg 94%
    23:00 +13°C° 0 mm 0 mps 654 mmHg 95%

    Day after tomorrow, 28 March, Thursday

    Time Temperature Precipitation Wind Pressure Humidity
    00:00 +13°C° 0.1 mm 0 mps 654 mmHg 94%
    01:00 +13°C° 0.1 mm 0 mps 654 mmHg 94%
    02:00 +13°C° 0.1 mm 0 mps 654 mmHg 94%
    03:00 +13°C° 0.1 mm 0 mps 654 mmHg 94%
    04:00 +13°C° 0.1 mm 0 mps 654 mmHg 95%
    05:00 +13°C° 0.1 mm 0 mps 653 mmHg 95%
    06:00 +13°C° 0 mm 0 mps 654 mmHg 93%
    07:00 +15°C° 0 mm 1 mps 654 mmHg 90%
    08:00 +16°C° 0 mm 1 mps 655 mmHg 88%
    09:00 +18°C° 0 mm 1 mps 655 mmHg 81%
    10:00 +19°C° 0 mm 2 mps 655 mmHg 74%
    11:00 +21°C° 0 mm 2 mps 656 mmHg 67%
    12:00 +21°C° 0 mm 2 mps 655 mmHg 67%
    13:00 +21°C° 0 mm 2 mps 654 mmHg 68%
    14:00 +23°C° 0 mm 2 mps 654 mmHg 68%
    15:00 +21°C° 0 mm 2 mps 653 mmHg 70%
    16:00 +21°C° 0 mm 2 mps 653 mmHg 72%
    17:00 +21°C° 0 mm 1 mps 652 mmHg 74%
    18:00 +20°C° 0 mm 1 mps 653 mmHg 78%
    19:00 +17°C° 0 mm 0 mps 653 mmHg 83%
    20:00 +16°C° 0 mm 0 mps 653 mmHg 87%
    21:00 +15°C° 0 mm 0 mps 653 mmHg 88%
    22:00 +15°C° 0 mm 0 mps 654 mmHg 89%
    23:00 +15°C° 0 mm 0 mps 654 mmHg 90%

    29 March, Friday

    Time Temperature Precipitation Wind Pressure Humidity
    00:00 +15°C° 0 mm 0 mps 654 mmHg 90%
    01:00 +15°C° 0 mm 0 mps 653 mmHg 90%
    02:00 +15°C° 0 mm 0 mps 653 mmHg 90%
    03:00 +15°C° 0 mm 0 mps 652 mmHg 91%
    04:00 +14°C° 0 mm 0 mps 652 mmHg 91%
    05:00 +14°C° 0 mm 0 mps 652 mmHg 92%
    06:00 +15°C° 0 mm 0 mps 652 mmHg 87%
    07:00 +18°C° 0 mm 1 mps 653 mmHg 83%
    08:00 +19°C° 0 mm 1 mps 653 mmHg 79%
    09:00 +19°C° 0 mm 2 mps 653 mmHg 74%
    10:00 +21°C° 0 mm 2 mps 654 mmHg 69%
    11:00 +22°C° 0 mm 3 mps 654 mmHg 65%
    12:00 +22°C° 0 mm 3 mps 653 mmHg 65%
    13:00 +22°C° 0 mm 3 mps 652 mmHg 66%
    14:00 +23°C° 0 mm 2 mps 651 mmHg 67%
    15:00 +23°C° 0 mm 2 mps 650 mmHg 70%
    16:00 +21°C° 0 mm 2 mps 649 mmHg 73%
    17:00 +22°C° 0 mm 1 mps 649 mmHg 77%
    18:00 +21°C° 0.1 mm 1 mps 649 mmHg 82%
    19:00 +19°C° 0.1 mm 1 mps 649 mmHg 88%
    20:00 +18°C° 0.1 mm 1 mps 649 mmHg 94%
    21:00 +18°C° 0.1 mm 1 mps 649 mmHg 93%
    22:00 +18°C° 0.1 mm 1 mps 649 mmHg 92%
    23:00 +19°C° 0.1 mm 1 mps 649 mmHg 91%

    30 March, Saturday

    Time Temperature Precipitation Wind Pressure Humidity
    00:00 +19°C° 0.1 mm 1 mps 649 mmHg 91%
    01:00 +17°C° 0.1 mm 0 mps 649 mmHg 91%
    02:00 +17°C° 0.1 mm 0 mps 649 mmHg 90%
    03:00 +17°C° 0.1 mm 0 mps 649 mmHg 89%
    04:00 +17°C° 0.1 mm 0 mps 649 mmHg 88%
    05:00 +17°C° 0.1 mm 0 mps 649 mmHg 87%
    06:00 +20°C° 0 mm 1 mps 649 mmHg 83%
    07:00 +21°C° 0 mm 1 mps 650 mmHg 79%
    08:00 +22°C° 0 mm 1 mps 651 mmHg 75%
    09:00 +24°C° 0 mm 1 mps 651 mmHg 71%
    10:00 +26°C° 0 mm 2 mps 651 mmHg 66%
    11:00 +27°C° 0 mm 2 mps 652 mmHg 61%
    12:00 +28°C° 0 mm 2 mps 651 mmHg 59%
    13:00 +29°C° 0 mm 2 mps 651 mmHg 56%
    14:00 +30°C° 0 mm 2 mps 650 mmHg 54%
    15:00 +29°C° 0 mm 2 mps 650 mmHg 59%
    16:00 +28°C° 0 mm 2 mps 650 mmHg 63%
    17:00 +27°C° 0 mm 2 mps 649 mmHg 68%
    18:00 +25°C° 0.8 mm 1 mps 650 mmHg 76%
    19:00 +23°C° 0.8 mm 1 mps 650 mmHg 84%
    20:00 +22°C° 0.8 mm 1 mps 650 mmHg 92%
    21:00 +21°C° 0.9 mm 1 mps 651 mmHg 92%
    22:00 +21°C° 0.9 mm 1 mps 651 mmHg 92%
    23:00 +21°C° 0.9 mm 1 mps 651 mmHg 92%

    31 March, Sunday

    Time Temperature Precipitation Wind Pressure Humidity
    00:00 +20°C° 0.1 mm 1 mps 651 mmHg 91%
    01:00 +20°C° 0.1 mm 1 mps 651 mmHg 89%
    02:00 +20°C° 0.1 mm 1 mps 651 mmHg 88%
    03:00 +19°C° 0 mm 1 mps 651 mmHg 87%
    04:00 +19°C° 0 mm 1 mps 650 mmHg 86%
    05:00 +19°C° 0 mm 1 mps 650 mmHg 86%
    06:00 +20°C° 0 mm 1 mps 651 mmHg 82%
    07:00 +21°C° 0 mm 1 mps 652 mmHg 79%
    08:00 +20°C° 0 mm 0 mps 652 mmHg 76%
    09:00 +24°C° 0 mm 1 mps 652 mmHg 69%
    10:00 +26°C° 0 mm 2 mps 653 mmHg 61%
    11:00 +28°C° 0 mm 2 mps 653 mmHg 54%
    12:00 +28°C° 0.1 mm 2 mps 652 mmHg 53%
    13:00 +28°C° 0.1 mm 2 mps 651 mmHg 51%
    14:00 +29°C° 0.1 mm 2 mps 650 mmHg 50%
    15:00 +28°C° 0.2 mm 2 mps 650 mmHg 56%
    16:00 +27°C° 0.2 mm 2 mps 649 mmHg 62%
    17:00 +26°C° 0.2 mm 2 mps 649 mmHg 68%
    18:00 +24°C° 0.3 mm 2 mps 649 mmHg 76%
    19:00 +21°C° 0.3 mm 2 mps 649 mmHg 84%
    20:00 +21°C° 0.3 mm 1 mps 649 mmHg 92%
    21:00 +20°C° 0.2 mm 1 mps 650 mmHg 93%
    22:00 +20°C° 0.2 mm 1 mps 650 mmHg 93%
    23:00 +19°C° 0.2 mm 1 mps 650 mmHg 94%
    Show more